Погода в Нойштрелице

Германия     53°21′54″N   13°03′55″E
темп.,
°C
ветер,
м/с
пор.,
м/с
влажн.,
%
обл.,
%
осадки,
мм/ч
давл.,
гПа
погр.,
м
26 февраля, пт
пт2601:00+8сз239563 0.0 102793
04:00+8сз2694100 1.3 1027341
07:00+7зсз3884100 2.1 1027461
10:00+7зсз4875100 0.0 1028541
13:00+9зсз5866100 0.0 10291040
16:00+9зсз486595 0.1 10281428
19:00+5з398748 0.2 1029318
22:00+4зсз411880 0.0 1030538
27 февраля, сб
сб2701:00+3зсз512911 0.0 1032502
04:00+2зсз4119533 0.0 1031463
07:00+4сз488867 0.0 1033633
10:00+6сз468287 0.0 1034545
13:00+7сз357792 0.0 1035569
16:00+8сз357220 0.0 1035778
19:00+3сз259410 0.0 1035103
22:00+2зсз22940 0.0 103637
28 февраля, вс
вс2801:00+2зюз22960 0.0 103638
04:00+2з22970 0.0 103552
07:00+1зюз25978 0.0 1035127
10:00+5з248431 0.0 1035284
13:00+9з347260 0.0 1035464
16:00+10зсз357521 0.0 1034631
19:00+5сз239310 0.0 103449
22:00+3с12930 0.0 103522
1 марта, пн
пн101:00+2ссз11940 0.0 103622
04:00+1в11950 0.0 103522
07:000ююв11960 0.0 103522
10:00+6ююв12804 0.0 1036253
13:00+9ююв22662 0.0 1035465
16:00+9ююв22680 0.0 1034463
19:00+5юв22860 0.0 103522
22:00+4юв23920 0.0 103550
2 марта, вт
вт201:00+3ююв23930 0.0 103550
04:00+2юв22930 0.0 103426
07:00+2юв22940 0.0 103436
10:00+7ююв24770 0.0 1034245
13:00+11ююв24630 0.0 1033448
16:00+11ю24620 0.0 1032535
19:00+6ююв22810 0.0 103122
22:00+5ю128623 0.0 103122